TimeEDT,TemperatureF,Dew PointF,Humidity,Sea Level PressureIn,VisibilityMPH,Wind Direction,Wind SpeedMPH,Gust SpeedMPH,PrecipitationIn,Events,Conditions,WindDirDegrees,DateUTC
12:53 AM,48.9,34.0,56,29.87,10.0,SSE,4.6,-,N/A,,Overcast,160,2013-03-31 04:53:00
1:53 AM,48.9,35.1,59,29.84,10.0,South,4.6,-,N/A,,Overcast,190,2013-03-31 05:53:00
2:53 AM,48.0,36.0,63,29.81,9.0,SSW,6.9,-,0.00,Rain,Light Rain,200,2013-03-31 06:53:00
3:53 AM,48.0,39.0,71,29.79,7.0,SW,9.2,-,0.00,Rain,Light Rain,220,2013-03-31 07:53:00
4:45 AM,46.4,42.8,87,29.76,5.0,WSW,15.0,20.7,0.00,,Haze,240,2013-03-31 08:45:00
4:53 AM,46.0,42.1,86,29.77,3.0,WSW,12.7,-,0.00,,Overcast,240,2013-03-31 08:53:00
5:09 AM,44.6,42.8,93,29.76,4.0,SW,10.4,-,N/A,,Overcast,230,2013-03-31 09:09:00
5:23 AM,46.4,42.8,87,29.76,4.0,WSW,13.8,-,N/A,,Overcast,240,2013-03-31 09:23:00
5:43 AM,44.6,42.8,93,29.75,2.0,WSW,12.7,-,N/A,,Overcast,250,2013-03-31 09:43:00
5:53 AM,44.1,42.1,93,29.76,2.0,WSW,13.8,-,N/A,,Overcast,240,2013-03-31 09:53:00
6:11 AM,44.6,42.8,93,29.75,1.8,West,12.7,-,N/A,,Overcast,260,2013-03-31 10:11:00
6:53 AM,42.1,41.0,96,29.76,1.2,West,11.5,-,N/A,,Overcast,270,2013-03-31 10:53:00
7:12 AM,42.8,41.0,93,29.76,1.8,West,11.5,-,N/A,,Overcast,270,2013-03-31 11:12:00
7:31 AM,42.8,41.0,93,29.75,2.0,West,9.2,-,N/A,,Overcast,270,2013-03-31 11:31:00
7:43 AM,42.8,41.0,93,29.76,1.8,West,11.5,-,N/A,,Overcast,270,2013-03-31 11:43:00
7:53 AM,42.1,41.0,96,29.77,1.2,West,9.2,-,N/A,,Overcast,270,2013-03-31 11:53:00
8:25 AM,42.8,41.0,93,29.76,1.0,West,9.2,-,N/A,,Overcast,270,2013-03-31 12:25:00
8:45 AM,42.8,41.0,93,29.76,1.5,West,10.4,-,N/A,,Overcast,270,2013-03-31 12:45:00
8:53 AM,42.1,41.0,96,29.77,1.8,West,10.4,-,N/A,,Overcast,270,2013-03-31 12:53:00
9:17 AM,42.8,41.0,93,29.76,2.0,West,10.4,-,N/A,,Mostly Cloudy,280,2013-03-31 13:17:00
9:26 AM,42.8,41.0,93,29.76,3.0,West,11.5,-,N/A,,Mostly Cloudy,280,2013-03-31 13:26:00
9:34 AM,42.8,41.0,93,29.76,3.0,West,10.4,-,N/A,,Partly Cloudy,280,2013-03-31 13:34:00
9:53 AM,43.0,39.9,89,29.77,5.0,WNW,11.5,-,N/A,,Scattered Clouds,290,2013-03-31 13:53:00
10:03 AM,42.8,39.2,87,29.76,6.0,WNW,9.2,17.3,N/A,,Mostly Cloudy,290,2013-03-31 14:03:00
10:53 AM,43.0,39.0,86,29.77,5.0,West,10.4,-,N/A,,Overcast,270,2013-03-31 14:53:00
11:20 AM,44.6,39.2,81,29.76,6.0,West,11.5,-,N/A,,Haze,260,2013-03-31 15:20:00
11:53 AM,45.0,37.9,76,29.78,7.0,WSW,13.8,-,N/A,,Mostly Cloudy,250,2013-03-31 15:53:00
12:02 PM,46.4,39.2,76,29.77,7.0,West,12.7,-,N/A,,Scattered Clouds,270,2013-03-31 16:02:00
12:53 PM,46.9,37.9,71,29.77,7.0,WSW,12.7,-,N/A,,Partly Cloudy,250,2013-03-31 16:53:00
1:53 PM,50.0,37.9,63,29.74,8.0,WSW,12.7,21.9,N/A,,Clear,250,2013-03-31 17:53:00
2:53 PM,52.0,37.0,57,29.73,7.0,WSW,18.4,-,N/A,,Clear,250,2013-03-31 18:53:00
3:53 PM,53.1,36.0,52,29.71,8.0,WSW,16.1,-,N/A,,Clear,250,2013-03-31 19:53:00
4:53 PM,53.1,36.0,52,29.70,10.0,West,12.7,-,N/A,,Partly Cloudy,260,2013-03-31 20:53:00
5:53 PM,51.1,35.1,54,29.70,10.0,West,12.7,-,N/A,,Overcast,260,2013-03-31 21:53:00
6:53 PM,48.0,33.1,56,29.71,10.0,WNW,11.5,-,N/A,,Overcast,290,2013-03-31 22:53:00
7:53 PM,43.0,34.0,71,29.77,10.0,NW,13.8,26.5,N/A,,Overcast,310,2013-03-31 23:53:00
8:53 PM,39.9,30.9,70,29.79,10.0,WNW,15.0,25.3,N/A,,Overcast,300,2013-04-01 00:53:00
9:53 PM,39.0,28.0,65,29.82,10.0,WNW,11.5,18.4,N/A,,Scattered Clouds,300,2013-04-01 01:53:00
10:53 PM,39.0,30.0,70,29.83,10.0,WNW,11.5,20.7,N/A,,Clear,300,2013-04-01 02:53:00
11:44 PM,35.6,32.0,87,29.83,10.0,NNW,11.5,20.7,N/A,,Overcast,330,2013-04-01 03:44:00
11:53 PM,36.0,30.0,79,29.84,10.0,NW,9.2,21.9,N/A,,Overcast,320,2013-04-01 03:53:00